[[{"header":{"parameterUnit":"m.s-1","parameterCategory":1,"la1":30.2991,"la2":30.254,"lo1":-89.0895,"lo2":-89.0444,"dy":0.0017,"dx":0.0017,"nx":28,"ny":28,"refTime":"2025-03-16T09:00:00:Z","depth":0,"parameterNumber":2,"parameterNumberName":"U-component_of_WINDS"},"data":[0,0,0,0,0,0,0,0,0,0,0,0,0,0,0,0,0,0,0,0,0,0,0,0,0,0,0,0,0,0,0,0,0,0,0,0,0,0,0,0,0,0,0,0,0,0,0,0,0,0,0,0,0,0,0,0,0,0,6.2365,6.2366,0,6.2494,6.2495,6.2497,6.243,6.2426,6.2423,6.242,6.2552,6.2559,6.2565,0,0,0,0,0,0,0,0,0,0,0,0,0,6.2064,6.2069,6.2365,6.2366,6.2368,6.2493,6.2495,6.2497,6.243,6.2426,6.2422,6.2418,6.255,6.2558,6.2566,0,0,0,0,0,0,0,0,0,0,0,0,0,6.2194,6.2071,6.2364,6.235,6.235,6.2493,6.2495,6.2497,6.2431,6.2426,6.2421,6.2416,6.2547,6.2557,6.2567,6.2732,0,0,6.2598,6.2602,0,0,0,0,0,0,0,0,6.2186,6.2205,6.235,6.2351,6.2351,6.244,6.2437,6.2576,6.2433,6.24,6.242,6.2414,6.2519,6.2531,6.2567,6.2738,6.2744,6.2599,6.2605,6.2609,6.2612,0,0,0,0,0,0,0,6.2177,6.2199,6.2416,6.2353,6.2353,6.2338,6.2351,6.2463,6.2487,6.2403,6.2398,6.2414,6.2518,6.2557,6.2569,6.2746,6.2598,6.2607,6.2613,6.2617,6.3062,6.3068,0,0,0,0,0,0,6.2169,6.2192,6.2412,6.242,6.2255,6.2347,6.2362,6.2417,6.2486,6.2491,6.2419,6.2411,6.2542,6.2558,6.2574,6.2773,6.2609,6.2618,6.2624,6.3056,6.3063,6.307,0,0,0,0,0,0,6.2163,6.2189,6.2406,6.2305,6.2331,6.2358,6.2421,6.2422,6.2461,6.2498,6.2502,6.2454,6.2539,6.2559,6.2694,6.2777,6.2623,6.2632,6.305,6.3058,6.3066,6.3172,0,0,0,0,0,0,6.2154,6.2187,6.225,6.2306,6.2337,6.2524,6.2426,6.2429,6.2478,6.2469,6.2532,6.2537,6.2536,6.2679,6.2704,6.2788,6.264,6.3042,6.3053,6.3064,6.3161,6.3183,6.3202,0,0,0,0,0,6.2144,6.2274,6.2253,6.228,6.2415,6.2529,6.2546,6.2543,6.2485,6.2549,6.2573,6.2535,6.2764,6.2693,6.2721,6.2809,6.3037,6.305,6.3063,6.3152,6.3179,6.3202,0,0,0,0,0,0,6.2225,6.2281,6.2258,6.241,6.2466,6.2517,6.2597,6.2571,6.2643,6.2632,6.2625,6.264,6.278,6.2807,6.2728,6.2974,6.2891,6.2911,6.295,6.2976,6.2996,6.2986,6.2648,0,0,0,0,0,6.2261,6.2348,6.2392,6.2522,6.2551,6.257,6.2619,6.2612,6.2669,6.2692,6.2725,6.2782,6.2867,6.2923,6.3003,6.3165,6.3179,6.324,6.326,6.3277,6.3293,6.3383,6.3412,6.3112,6.3112,6.3112,0,0,6.2335,6.2376,6.2432,6.254,6.2581,6.2673,6.2589,6.2689,6.2757,6.2707,6.2836,6.2863,6.2926,6.3076,6.3144,6.3104,6.3379,6.3293,6.3306,6.3314,6.34,6.3428,6.3453,6.3121,6.3119,6.3118,0,0,6.2518,6.2557,6.2671,6.2715,6.278,6.2792,6.2819,6.2876,6.2892,6.3022,6.2987,6.3068,6.3214,6.3261,6.3304,6.3508,6.3477,6.3535,6.3641,6.3729,6.3753,6.3774,6.3848,6.3874,6.3551,6.3551,6.3551,0,6.2602,6.2738,6.2732,6.2836,6.2885,6.2844,6.296,6.3004,6.3091,6.3127,6.3081,6.3265,6.3304,6.3466,6.3516,6.3552,6.3584,6.3527,6.375,6.3771,6.379,6.3861,6.3889,6.3558,6.3557,6.3556,6.3556,0,6.2839,6.2935,6.3019,6.3105,6.3164,6.3273,6.3285,6.3346,6.3335,6.3352,6.3486,6.3533,6.3622,6.366,6.365,6.3821,6.3795,6.375,6.3667,6.3825,6.3892,6.3919,6.3567,6.3565,6.3563,6.3561,0,0,6.3075,6.3159,6.319,6.323,6.33,6.3374,6.3482,6.357,6.3623,6.3686,6.3778,6.3903,6.3863,6.3912,6.3907,6.3984,6.4145,6.393,6.3931,6.3969,6.434,6.4373,6.4405,6.4125,6.413,6.4135,6.4335,0,6.3263,6.3452,6.3452,6.3627,6.3716,6.368,6.3775,6.3829,6.3849,6.3928,6.395,6.404,6.3979,6.4009,6.4084,6.411,6.422,6.4095,6.4212,6.4216,6.4197,6.4439,6.4475,6.4661,6.436,6.4365,6.4368,0,6.3507,6.3579,6.3763,6.3823,6.386,6.3945,6.4027,6.4103,6.4165,6.4174,6.423,6.4214,6.4326,6.4241,6.4396,6.4311,6.4359,6.438,6.4387,6.4398,6.4301,6.4457,6.472,6.4749,6.4409,6.4405,6.4402,0,6.3662,6.3805,6.3934,6.3969,6.4041,6.4103,6.4136,6.4192,6.4246,6.4318,6.4353,6.4438,6.4484,6.455,6.4558,6.4495,6.4715,6.4629,6.4727,6.4727,6.4774,6.4771,6.5049,6.4805,6.4804,6.4804,6.4803,0,6.3873,6.3987,6.4005,6.4085,6.4213,6.4212,6.4339,6.4367,6.4418,6.4503,6.4478,6.4558,6.4563,6.4647,6.4654,6.4782,6.4803,6.4814,6.4815,6.4817,6.4816,6.4848,6.4836,6.4811,6.4809,6.4808,6.4807,0,6.4067,6.4084,6.4223,6.428,6.4298,6.439,6.4439,6.4516,6.4534,6.4643,6.4668,6.4697,6.4795,6.4809,6.4922,6.4927,6.5082,6.5069,6.5061,6.506,6.5156,6.5147,6.5465,6.5508,6.5235,6.5237,6.5239,0,6.42,6.4288,6.4356,6.4411,6.4448,6.4537,6.4592,6.4596,6.4655,6.4733,6.4801,6.4896,6.4972,6.5129,6.5161,6.5248,6.5237,6.5343,6.525,6.525,6.524,6.5235,6.5245,6.5361,6.5363,6.5366,6.5368,0,6.4436,6.444,6.4521,6.4606,6.4673,6.474,6.4803,6.485,6.4862,6.493,6.5029,6.5088,6.5206,6.5301,6.5388,6.5423,6.5399,6.5397,6.5424,6.5427,6.542,6.5427,6.5111,6.539,6.5387,6.5386,6.5385,6.5384,6.4604,6.4681,6.4742,6.4833,6.4881,6.4942,6.5017,6.5046,6.5129,6.5224,6.5222,6.5332,6.5393,6.5508,6.5549,6.5636,6.5602,6.5641,6.5651,6.5661,6.5671,6.5406,6.5652,6.5651,6.5651,6.565,6.565,0,6.4839,6.4877,6.4961,6.5051,6.5124,6.5095,6.5164,6.5227,6.5324,6.5383,6.5459,6.5575,6.5667,6.5707,6.5799,6.5861,6.5852,6.5885,6.588,6.5889,6.5695,6.5663,6.5891,6.589,6.589,6.589,6.589,6.589,6.497,6.51,6.5112,6.5266,6.5302,6.541,6.5452,6.5508,6.5556,6.5686,6.5763,6.5789,6.5841,6.5937,6.6021,6.6031,6.6066,6.6104,6.6109,6.5927,6.5903,6.5879,6.5849,6.6112,6.6112,6.6296,6.6297,6.6299]},{"header":{"parameterUnit":"m.s-1","parameterCategory":1,"la1":30.2991,"la2":30.254,"lo1":-89.0895,"lo2":-89.0444,"dy":0.0017,"dx":0.0017,"nx":28,"ny":28,"refTime":"2025-03-16T09:00:00:Z","depth":0,"parameterNumber":3,"parameterNumberName":"V-component_of_WINDS"},"data":[0,0,0,0,0,0,0,0,0,0,0,0,0,0,0,0,0,0,0,0,0,0,0,0,0,0,0,0,0,0,0,0,0,0,0,0,0,0,0,0,0,0,0,0,0,0,0,0,0,0,0,0,0,0,0,0,0,0,-5.1853,-5.1854,0,-5.1949,-5.195,-5.1951,-5.1915,-5.1913,-5.1911,-5.1909,-5.2005,-5.201,-5.2014,0,0,0,0,0,0,0,0,0,0,0,0,0,-5.1638,-5.1642,-5.1853,-5.1854,-5.1855,-5.1949,-5.195,-5.1951,-5.1916,-5.1913,-5.191,-5.1908,-5.2004,-5.2009,-5.2015,0,0,0,0,0,0,0,0,0,0,0,0,0,-5.1732,-5.1643,-5.1852,-5.1849,-5.1849,-5.1948,-5.195,-5.1951,-5.1916,-5.1913,-5.191,-5.1907,-5.2002,-5.2009,-5.2016,-5.2124,0,0,-5.2037,-5.204,0,0,0,0,0,0,0,0,-5.1727,-5.174,-5.1848,-5.1849,-5.185,-5.1917,-5.191,-5.2009,-5.1917,-5.1891,-5.1909,-5.1905,-5.1978,-5.1987,-5.2012,-5.2128,-5.2132,-5.2037,-5.2042,-5.2045,-5.2046,0,0,0,0,0,0,0,-5.172,-5.1736,-5.189,-5.185,-5.1851,-5.1842,-5.1852,-5.1928,-5.1952,-5.1893,-5.189,-5.1902,-5.1978,-5.2006,-5.2014,-5.2134,-5.2037,-5.2043,-5.2048,-5.205,-5.2344,-5.2348,0,0,0,0,0,0,-5.1714,-5.1731,-5.1887,-5.1893,-5.1779,-5.1848,-5.1859,-5.1898,-5.1951,-5.1956,-5.1905,-5.19,-5.1995,-5.2006,-5.2017,-5.2148,-5.2044,-5.2051,-5.2055,-5.2341,-5.2345,-5.2349,0,0,0,0,0,0,-5.1709,-5.1728,-5.1884,-5.1811,-5.1831,-5.1856,-5.19,-5.1902,-5.1929,-5.196,-5.1964,-5.1929,-5.1993,-5.2008,-5.2098,-5.2151,-5.2054,-5.206,-5.2336,-5.2342,-5.2347,-5.241,0,0,0,0,0,0,-5.1703,-5.1727,-5.1768,-5.1813,-5.1835,-5.1963,-5.1903,-5.1906,-5.1942,-5.1936,-5.1983,-5.1988,-5.1992,-5.2088,-5.2105,-5.2159,-5.2066,-5.2332,-5.2339,-5.2345,-5.2403,-5.2417,-5.2428,0,0,0,0,0,-5.1696,-5.1781,-5.177,-5.1789,-5.1887,-5.1966,-5.1978,-5.1982,-5.1946,-5.1988,-5.2008,-5.1986,-5.2143,-5.2097,-5.2116,-5.2173,-5.2328,-5.2337,-5.2345,-5.2397,-5.2414,-5.2428,0,0,0,0,0,0,-5.1741,-5.1787,-5.1775,-5.1878,-5.1918,-5.196,-5.2012,-5.1999,-5.205,-5.2043,-5.2044,-5.2055,-5.2149,-5.217,-5.2119,-5.2281,-5.223,-5.2242,-5.2263,-5.228,-5.2292,-5.2285,-5.2071,0,0,0,0,0,-5.1763,-5.1824,-5.186,-5.1947,-5.1968,-5.1987,-5.2022,-5.2021,-5.2063,-5.208,-5.2106,-5.2147,-5.2205,-5.2244,-5.2299,-5.2406,-5.2416,-5.2455,-5.2467,-5.2477,-5.2488,-5.2547,-5.2565,-5.2376,-5.2376,-5.2376,0,0,-5.1809,-5.1842,-5.188,-5.1957,-5.1989,-5.2052,-5.2002,-5.207,-5.2117,-5.209,-5.2177,-5.2198,-5.2244,-5.2343,-5.2388,-5.2364,-5.2543,-5.2488,-5.2496,-5.2501,-5.2557,-5.2575,-5.2591,-5.2382,-5.2381,-5.238,0,0,-5.1925,-5.1956,-5.2032,-5.2065,-5.2113,-5.2125,-5.2144,-5.2188,-5.2201,-5.2289,-5.227,-5.2325,-5.2426,-5.246,-5.249,-5.262,-5.2603,-5.2638,-5.2704,-5.2762,-5.2777,-5.279,-5.2837,-5.2854,-5.2649,-5.2649,-5.2649,0,-5.1976,-5.207,-5.2073,-5.2143,-5.2178,-5.2158,-5.2235,-5.2267,-5.233,-5.2355,-5.2327,-5.2453,-5.2483,-5.259,-5.2622,-5.2647,-5.2669,-5.2633,-5.2775,-5.2788,-5.28,-5.2845,-5.2863,-5.2653,-5.2653,-5.2652,-5.2652,0,-5.213,-5.2196,-5.2252,-5.2315,-5.2356,-5.243,-5.2444,-5.2485,-5.2481,-5.2497,-5.2587,-5.2621,-5.2684,-5.2709,-5.2706,-5.2817,-5.28,-5.2774,-5.2722,-5.2822,-5.2864,-5.2881,-5.2659,-5.2657,-5.2656,-5.2655,0,0,-5.2277,-5.2342,-5.2362,-5.2391,-5.2444,-5.2494,-5.2567,-5.2629,-5.2665,-5.271,-5.2771,-5.2857,-5.2833,-5.2868,-5.2868,-5.2919,-5.3021,-5.2886,-5.2887,-5.291,-5.3146,-5.3166,-5.3186,-5.301,-5.3013,-5.3016,-5.3142,0,-5.2397,-5.2525,-5.2531,-5.2648,-5.2709,-5.2691,-5.2754,-5.2794,-5.281,-5.2864,-5.2882,-5.2944,-5.2907,-5.2928,-5.2977,-5.2998,-5.3068,-5.2989,-5.3067,-5.3069,-5.3056,-5.3208,-5.3229,-5.3346,-5.3159,-5.3161,-5.3163,0,-5.2554,-5.2605,-5.2729,-5.2774,-5.28,-5.2857,-5.2914,-5.2966,-5.3011,-5.3019,-5.3059,-5.3052,-5.3127,-5.3074,-5.3177,-5.3123,-5.3155,-5.317,-5.3175,-5.3182,-5.3122,-5.3219,-5.3384,-5.3402,-5.3189,-5.3187,-5.3185,0,-5.2649,-5.2749,-5.2836,-5.2861,-5.2915,-5.2956,-5.2981,-5.3022,-5.3059,-5.311,-5.3134,-5.3192,-5.3224,-5.3269,-5.3279,-5.3239,-5.3382,-5.333,-5.3391,-5.3391,-5.3422,-5.342,-5.3595,-5.3443,-5.3443,-5.3442,-5.3442,0,-5.2783,-5.2859,-5.2879,-5.2933,-5.3018,-5.3023,-5.3107,-5.3129,-5.3166,-5.3223,-5.3211,-5.3265,-5.3274,-5.3331,-5.3338,-5.3423,-5.3437,-5.3446,-5.3447,-5.3447,-5.3446,-5.3468,-5.346,-5.3447,-5.3446,-5.3445,-5.3444,0,-5.2903,-5.2919,-5.3013,-5.3058,-5.3071,-5.3131,-5.3169,-5.3221,-5.3236,-5.3309,-5.3327,-5.3351,-5.3417,-5.3431,-5.3508,-5.3513,-5.3614,-5.3607,-5.3599,-5.3599,-5.366,-5.3654,-5.3854,-5.3881,-5.3712,-5.3714,-5.3715,0,-5.2987,-5.3046,-5.3097,-5.3135,-5.3162,-5.3223,-5.3261,-5.3269,-5.3309,-5.3365,-5.341,-5.3475,-5.3527,-5.3632,-5.3657,-5.3716,-5.3711,-5.3777,-5.3719,-5.3718,-5.3712,-5.3709,-5.3715,-5.3788,-5.379,-5.3791,-5.3792,0,-5.3135,-5.3141,-5.3197,-5.3256,-5.3303,-5.335,-5.3394,-5.3426,-5.344,-5.3486,-5.3554,-5.3594,-5.3674,-5.3739,-5.3798,-5.3823,-5.3811,-5.3811,-5.3828,-5.3829,-5.3822,-5.3827,-5.3629,-5.3806,-5.3804,-5.3803,-5.3803,-5.3802,-5.324,-5.3292,-5.3336,-5.3399,-5.3434,-5.3476,-5.3527,-5.355,-5.3606,-5.3672,-5.3674,-5.3747,-5.3791,-5.387,-5.3899,-5.3957,-5.3936,-5.3961,-5.3968,-5.3974,-5.398,-5.3813,-5.3968,-5.3968,-5.3967,-5.3967,-5.3967,0,-5.3388,-5.3416,-5.3474,-5.3537,-5.3587,-5.3572,-5.3621,-5.3663,-5.3729,-5.3771,-5.3823,-5.3901,-5.3964,-5.3994,-5.4056,-5.4096,-5.4092,-5.4112,-5.4109,-5.4115,-5.3995,-5.3974,-5.4115,-5.4115,-5.4115,-5.4115,-5.4115,-5.4115,-5.3471,-5.3557,-5.3568,-5.3672,-5.37,-5.3772,-5.3802,-5.3841,-5.3875,-5.3963,-5.4015,-5.4035,-5.4072,-5.4137,-5.4194,-5.4201,-5.4225,-5.4248,-5.4252,-5.4139,-5.4124,-5.4109,-5.409,-5.4253,-5.4253,-5.4368,-5.4369,-5.437]}]]